Profile of Voice Seeker 94514

These are the public details of this voice seeker.

94514
Confidential (why?)
2014-02-19

68 projects

0 projects
28

95.92%
10 days ago
• A Voice123 Team member HAS NOT spoken over the phone to this voice-seeker about his/her projects, messages, or invitations.
• A Voice123 Team member HAS NOT communicated via email with this voice-seeker about his/her projects, messages, or invitations.
List of Projects Posted with Voice123's SmartCast Enabled:
ID Name Posted Deadline Auditions/
Proposals Received
% of Auditions/
Proposals
Opened
ZD3643739 AI technology explainer 2017-08-14 20:50:59 GMT 2017-08-15 19:00:00 GMT 16 93.75%
ZD3535395 High tech explainer 2017-08-10 00:26:42 GMT 2017-08-19 23:00:00 GMT 25 100.00%
ZD2542959 Energetic lottery promo 2017-05-22 18:45:01 GMT 2017-05-24 15:00:00 GMT 15 100.00%
ZD2275188 Tough New England Accent for Event Opener 2017-04-21 21:33:39 GMT 2017-05-01 17:00:00 GMT 10 80.00%
ZD2234646 Shoelace Manufacturing Spot 2017-04-12 22:21:01 GMT 2017-04-20 15:22:37 GMT 21 100.00%
ZD2145366 Scratching is Good 2017-03-23 23:44:55 GMT 2017-04-02 19:00:00 GMT 30 100.00%
ZD2074190 Punchy Entrepreneurial Spirt Rally Cry 2017-03-08 02:46:42 GMT 2017-03-10 21:00:00 GMT 30 90.00%
ZD1956025 Healthcare Website Explainer Video 2017-02-09 22:55:57 GMT 2017-02-15 17:00:00 GMT 49 42.86%
ZD1784184 Internal Culture Video 2017-01-02 19:12:58 GMT 2017-01-12 14:00:00 GMT 39 100.00%
ZD1563772 Innovative Facility Security Solution 2016-11-13 22:36:21 GMT 2016-11-23 17:00:00 GMT 31 100.00%
ZD1388223 Innovative Medical Imaging Platform 2016-10-06 02:31:05 GMT 2016-10-15 22:00:00 GMT 30 100.00%
ZD1388203 Fun Financial Services Infographic 2016-10-06 02:24:30 GMT 2016-10-15 22:00:00 GMT 29 100.00%
ZD1271883 Irish Leprechaun Video 2016-09-10 05:42:42 GMT 2016-09-21 01:00:00 GMT 30 0.00%
ZD1137668 REKS Web 2 2016-08-11 05:45:06 GMT 2016-08-16 01:00:00 GMT 19 10.53%
ZD1136058 Innovative Plastics Manufacturer 2016-08-10 21:35:23 GMT 2016-08-20 17:00:00 GMT 30 100.00%
ZD1135942 RI LOT TV Commercial 2016-08-10 20:59:39 GMT 2016-08-27 23:00:00 GMT 33 12.12%
ZD1046016 REKS Web Spot 2016-07-21 21:36:40 GMT 2016-07-28 17:00:00 GMT 10 50.00%
ZD1045898 Industry Leader in Automotive Components 2016-07-21 21:00:28 GMT 2016-07-30 13:00:00 GMT 28 96.43%
ZD1036034 Technology Event 2016-07-19 16:22:42 GMT 2016-07-29 12:00:00 GMT 37 97.30%
ZD917185 CGA Web Video 2 2016-06-23 00:11:32 GMT 2016-07-01 22:00:00 GMT 33 54.55%
ZD912165 CGA Web Video 2016-06-21 21:51:20 GMT 2016-07-08 22:00:00 GMT 0 N/A
ZD787091 Retail Technology Software 2016-05-25 04:48:02 GMT 2016-06-04 00:00:00 GMT 4 75.00%
ZD785014 Retail Technology Solution 2016-05-24 18:28:41 GMT 2016-05-24 23:45:14 GMT 5 100.00%
ZD764727 Brand Voice for Automotive Engineering Company 2016-05-19 20:18:48 GMT 2016-05-29 16:00:00 GMT 41 80.49%
ZD690689 Brand Voices 2016-04-25 18:35:32 GMT 2016-05-05 14:00:00 GMT 51 94.12%
ZD689363 Financial Services Promotion 2016-04-16 06:39:57 GMT 2016-04-22 02:00:00 GMT 25 96.00%
ZD683481 Academic Assessment Technology 2016-03-17 02:19:23 GMT 2016-03-24 14:23:04 GMT 9 66.67%
ZD682803 Academic Assessment Technology 2016-03-14 01:58:47 GMT 2016-03-23 21:00:00 GMT 40 87.50%
ZD682526 Artificial Intellegence 2016-03-11 18:16:56 GMT 2016-03-21 12:00:00 GMT 40 100.00%
ZD675302 TIME Event Theme 2016-01-29 05:31:01 GMT 2016-01-29 17:00:00 GMT 2 100.00%
ZD674981 Marketing at the core 2016-01-27 17:47:33 GMT 2016-01-29 18:00:00 GMT 24 100.00%
ZD670646 The New Generation of Insurance 2015-12-19 01:47:57 GMT 2015-12-28 20:00:00 GMT 31 100.00%
ZD670427 Short Medical Explanation Video 2015-12-17 05:17:00 GMT 2015-12-28 00:00:00 GMT 29 100.00%
ZD669633 Real Estate Market Profiles 2015-12-10 06:51:43 GMT 2015-12-21 01:00:00 GMT 33 100.00%
ZD667878 Warm Trusting Voice for Pharmaceutical 2015-11-26 00:51:00 GMT 2015-12-10 19:00:00 GMT 51 96.08%
ZD652471 Physical Therapy Commercial 2015-11-09 23:52:06 GMT 2015-11-19 18:00:00 GMT 25 100.00%
ZD605692 Basketball Commercial 2015-10-15 19:50:21 GMT 2015-10-15 22:00:00 GMT 11 100.00%
ZD603383 Infographic Style Software Video 2015-09-30 21:55:54 GMT 2015-10-10 18:00:00 GMT 30 83.33%
ZD601291 HR Technology and Experts 2015-09-14 18:47:56 GMT 2015-09-18 14:00:00 GMT 30 100.00%
ZD593669 PBS Underwriting Statement 2015-07-21 23:23:15 GMT 2015-07-24 19:00:00 GMT 20 100.00%
ZD592833 Large Law Firm 2015-07-15 19:48:15 GMT 2015-07-21 16:00:00 GMT 38 97.37%
ZD558047 Wellness Program Promotional Video 2015-06-15 18:45:32 GMT 2015-06-22 13:00:00 GMT 31 96.77%
ZD545729 Web Promo 2 2015-06-12 18:28:59 GMT 2015-06-14 22:00:00 GMT 15 60.00%
ZD545634 Exciting Event Company Promotion 2015-06-12 18:15:18 GMT 2015-06-22 14:00:00 GMT 25 96.00%
ZD538688 Schedule and Planning Software 2015-06-11 02:26:21 GMT 2015-06-16 22:00:00 GMT 25 96.00%
ZD512088 New Product Offering Email Blast 2015-06-04 17:47:31 GMT 2015-06-15 01:00:00 GMT 20 70.00%
ZD500200 Premium Customized Product Company 2015-06-01 18:14:14 GMT 2015-06-05 23:00:00 GMT 30 100.00%
ZD451505 Animus Studios PD 2015-05-19 02:14:51 GMT 2015-06-12 22:00:00 GMT 8 100.00%
ZD404814 Mobile App Promo 2015-05-04 18:31:46 GMT 2015-05-14 13:00:00 GMT 40 100.00%
ZD299750 Friendly Bank Commercial 2015-03-27 18:41:12 GMT 2015-04-02 02:00:00 GMT 54 100.00%
ZD222928 Technology Enablement Company 2015-02-10 02:47:26 GMT 2015-02-19 21:00:00 GMT 28 17.86%
ZD222477 URI Pink Out 2015-02-09 19:45:20 GMT 2015-02-09 17:42:13 GMT 6 83.33%
ZD203460 High Education Demo Reel 2015-01-23 20:32:36 GMT 2015-02-02 14:00:00 GMT 21 23.81%
ZD197229 Online Training Video 2015-01-15 23:33:08 GMT 2015-01-18 17:00:00 GMT 41 100.00%
ZD170729 Alex and Ani Stinger Read 2 2014-12-10 21:01:33 GMT 2014-12-11 15:00:00 GMT 26 0.00%
ZD170663 Alex and Ani Stinger Read 2014-12-10 04:24:03 GMT 2014-12-10 16:00:00 GMT 22 13.64%
ZD170096 South County Hospital 15sec 2014-12-09 18:20:33 GMT 2014-12-11 22:00:00 GMT 15 73.33%
ZD155977 TCO14 Open 2014-11-13 02:25:42 GMT 2014-11-14 22:00:00 GMT 24 45.83%
ZD153398 Changing Technology Challenge 2014-10-24 21:24:17 GMT 2014-10-30 17:00:00 GMT 30 80.00%
ZD152203 Artistic Retreat Promotion 2014-10-16 22:09:59 GMT 2014-10-17 13:00:00 GMT 5 100.00%
ZD149832 Flashion Statement 2014-09-29 21:21:22 GMT 2014-10-02 19:00:00 GMT 21 100.00%
ZD149909 Online Walk Through for Screen Cap 2014-09-30 02:58:21 GMT 2014-10-04 01:00:00 GMT 40 100.00%
ZD149491 Infographic Exciting Promo 2014-09-25 23:51:58 GMT 2014-09-29 23:00:00 GMT 25 100.00%
ZD147520 Climate Change Promotional Graphic Explainer Video 2014-09-12 04:00:30 GMT 2014-09-16 02:00:00 GMT 27 40.74%
ZD146230 Online Program Walk Through 2014-09-04 22:30:08 GMT 2014-09-08 19:00:00 GMT 36 100.00%
ZD144861 Infographic Scientific Video 2014-08-25 19:14:33 GMT 2014-08-29 18:00:00 GMT 40 62.50%
ZD143041 Football Commercial 60 2014-08-12 02:30:20 GMT 2014-08-12 22:00:00 GMT 26 92.31%
ZD103970 Power of Filmmaking 2014-02-22 01:05:16 GMT 2014-02-27 00:00:00 GMT 25 100.00%

Note: Although Voice123 tries to establish the legitimacy of all voice seekers, you are responsible for conducting your own investigation into any and all claims made by prospective voice seekers, agents and/or clients. You assume all liability for use of any information you find through Voice123, or any of its publications.